Location: Newark
(34.9756°N, 138.3828°E)
Time: 11:15:00
(UTC+00:00)

Starlink Launch 2 trailer - Visible Passes

Search period start: 13 December 2019 00:00
Search period end: 23 December 2019 00:00
Orbit: 279 x 281 km, 53.0° (Epoch: 13 November)

Date Brightness Start Highest point End Pass type
(mag) Time Alt. Az. Time Alt. Az. Time Alt. Az.
19 Dec 5.9 09:42:45 10° WSW 09:42:59 12° WSW 09:42:59 12° WSW visible
20 Dec 4.5 08:12:11 10° SSE 08:13:38 14° SE 08:15:05 10° E visible
20 Dec 6.0 09:45:09 10° W 09:45:20 11° W 09:45:20 11° W visible
21 Dec 3.2 08:13:11 10° SSW 08:15:27 33° SE 08:17:28 12° ENE visible
22 Dec 2.2 08:14:52 10° SW 08:17:19 84° NW 08:19:39 11° NE visible
